This demonstration page uses our WeatherBlox Daily Observations layout. Learn more.

Hourly Observations for March 30, 2015

Temp ( °F °C ) Dew Point ( °F °C ) Humidity (%) Winds ( mph kmh ) Pressure ( in mb ) Visibility ( mi km ) Precip ( " mm )
12:15 am 00:15 Clear 40 4.3 12 -11.1 32 32 S 6 9 30.18 1022 10 16.0934 0 0
12:35 am 00:35 Clear 42 5.6 12 -11 29 29 S 7 11 30.18 1022 10 16.0934 0 0
12:55 am 00:55 Clear 43 6 12 -11 29 29 SSW 9 15 30.18 1022 10 16.0934 0 0
1:15 am 01:15 Clear 44 6.9 14 -10.2 29 29 SSW 9 15 30.18 1022 10 16.0934 0 0
1:35 am 01:35 Clear 45 7.4 13 -10.3 27 27 SSW 9 15 30.18 1022 10 16.0934 0 0
1:55 am 01:55 Clear 46 7.8 14 -10.1 27 27 SSW 9 15 30.15 1021 10 16.0934 0 0
2:15 am 02:15 Clear 48 8.7 13 -10.4 25 25 SSW 10 17 30.15 1021 10 16.0934 0 0
2:35 am 02:35 Clear 46 7.7 14 -10.1 27 27 SSW 9 15 30.15 1021 10 16.0934 0 0
2:55 am 02:55 Clear 46 8 14 -10.2 27 27 SSW 10 17 30.15 1021 10 16.0934 0 0
3:15 am 03:15 Clear 45 7.2 14 -10 29 29 SSW 9 15 30.18 1022 10 16.0934 0 0
3:35 am 03:35 Clear 45 7.1 14 -9.9 29 29 SSW 8 13 30.18 1022 10 16.0934 0 0
3:55 am 03:55 Clear 45 7 14 -10 29 29 SSW 10 17 30.18 1022 10 16.0934 0 0
4:15 am 04:15 Clear 45 7.2 14 -10.1 28 28 SSW 10 17 30.18 1022 10 16.0934 0 0
4:35 am 04:35 Clear 45 7.1 14 -10 29 29 SSW 10 17 30.18 1022 10 16.0934 0 0
4:55 am 04:55 Clear 44 6.4 14 -9.8 31 31 SSW 8 13 30.15 1021 10 16.0934 0 0
5:15 am 05:15 Clear 42 5.5 15 -9.7 33 33 SW 8 13 30.15 1021 10 16.0934 0 0
5:35 am 05:35 Clear 41 5.2 14 -9.8 33 33 SSW 8 13 30.15 1021 10 16.0934 0 0
5:55 am 05:55 Clear 41 5 15 -9.6 34 34 SW 10 17 30.15 1021 10 16.0934 0 0
6:15 am 06:15 Clear 41 4.8 15 -9.6 35 35 SW 9 15 30.15 1021 10 16.0934 0 0
6:35 am 06:35 Clear 41 5.1 15 -9.5 34 34 SSW 9 15 30.15 1021 10 16.0934 0 0
6:55 am 06:55 Clear 40 4.5 15 -9.5 36 36 SSW 8 13 30.15 1021 10 16.0934 0 0
7:15 am 07:15 Clear 39 4.1 16 -9.1 38 38 SSW 8 13 30.15 1021 10 16.0934 0 0
7:35 am 07:35 Sunny 40 4.5 15 -9.2 37 37 SW 10 17 30.15 1021 10 16.0934 0 0
7:55 am 07:55 Sunny 41 4.9 17 -8.6 37 37 SW 10 17 30.15 1021 10 16.0934 0 0
8:15 am 08:15 Sunny 42 5.8 17 -8.2 36 36 SW 13 20 30.15 1021 10 16.0934 0 0
8:35 am 08:35 Sunny 44 6.9 18 -7.7 35 35 SW 13 20 30.12 1020 10 16.0934 0 0
8:55 am 08:55 Sunny 47 8.6 20 -6.9 33 33 SW 14 22 30.12 1020 10 16.0934 0 0
9:15 am 09:15 Sunny 49 9.6 20 -6.5 32 32 SW 20 31 30.12 1020 10 16.0934 0 0
9:35 am 09:35 Sunny 52 10.9 22 -5.7 31 31 SW 15 24 30.09 1019 10 16.0934 0 0
9:55 am 09:55 Sunny 54 12 22 -5.5 29 29 SW 18 30 30.09 1019 10 16.0934 0 0
10:15 am 10:15 Sunny 55 13 23 -5.2 28 28 SW 15 24 30.09 1019 10 16.0934 0 0
10:35 am 10:35 Sunny 58 14.6 24 -4.4 27 27 SW 20 31 30.03 1017 10 16.0934 0 0
10:55 am 10:55 Sunny 60 15.5 25 -4 26 26 SW 20 31 30.03 1017 10 16.0934 0 0
11:15 am 11:15 Sunny 62 16.5 26 -3.6 25 25 SW 22 35 30 1016 10 16.0934 0 0
11:35 am 11:35 Sunny 63 17.4 26 -3.5 24 24 SW 22 35 30 1016 10 16.0934 0 0
11:55 am 11:55 Sunny 65 18.6 26 -3.2 23 23 WSW 20 31 30 1016 10 16.0934 0 0
12:15 pm 12:15 Sunny 67 19.6 27 -2.9 22 22 SW 15 24 29.94 1014 10 16.0934 0 0
12:35 pm 12:35 Sunny 69 20.6 27 -2.6 21 21 WSW 16 26 29.94 1014 10 16.0934 0 0
12:55 pm 12:55 Sunny 71 21.7 27 -2.6 20 20 SW 18 30 29.94 1014 10 16.0934 0 0
1:15 pm 13:15 Sunny 72 22.2 27 -2.6 19 19 SW 13 20 29.91 1013 10 16.0934 0 0
1:35 pm 13:35 Sunny 73 23 26 -3.3 17 17 SW 8 13 29.91 1013 10 16.0934 0 0
1:55 pm 13:55 Sunny 74 23.4 25 -3.9 16 16 WSW 6 9 29.91 1013 10 16.0934 0 0
2:15 pm 14:15 Sunny 74 23.6 25 -3.7 16 16 WSW 6 9 29.88 1012 10 16.0934 0 0
2:35 pm 14:35 Sunny 75 24.1 24 -4.6 14 14 NNW 9 15 29.85 1011 10 16.0934 0 0
2:55 pm 14:55 Sunny 76 24.3 24 -4.4 15 15 NW 12 19 29.85 1011 10 16.0934 0 0
3:15 pm 15:15 Sunny 76 24.6 23 -4.8 14 14 NNW 10 17 29.85 1011 10 16.0934 0 0
3:35 pm 15:35 Sunny 76 24.6 22 -5.7 13 13 NNE 12 19 29.85 1011 10 16.0934 0 0
3:55 pm 15:55 Sunny 76 24.5 22 -5.6 13 13 NNW 12 19 29.85 1011 10 16.0934 0 0
4:15 pm 16:15 Sunny 75 23.9 22 -5.4 14 14 NNW 8 13 29.85 1011 10 16.0934 0 0
4:35 pm 16:35 Sunny 75 24 23 -4.8 14 14 NW 7 11 29.85 1011 10 16.0934 0 0
4:55 pm 16:55 Sunny 75 24.1 23 -4.9 14 14 N 9 15 29.85 1011 10 16.0934 0 0
5:15 pm 17:15 Sunny 77 24.8 23 -5 13 13 N 8 13 29.83 1010 10 16.0934 0 0
5:35 pm 17:35 Sunny 76 24.7 21 -6.1 12 12 NNW 8 13 29.83 1010 10 16.0934 0 0
5:55 pm 17:55 Sunny 76 24.5 21 -6.1 13 13 N 9 15 29.83 1010 10 16.0934 0 0
6:15 pm 18:15 Sunny 76 24.4 20 -6.6 12 12 NNE 14 22 29.83 1010 10 16.0934 0 0
6:35 pm 18:35 Sunny 75 24 20 -6.6 12 12 NNW 7 11 29.83 1010 10 16.0934 0 0
6:55 pm 18:55 Sunny 75 23.8 20 -6.7 13 13 N 7 11 29.83 1010 10 16.0934 0 0
7:15 pm 19:15 Sunny 73 23 20 -6.7 13 13 N 7 11 29.83 1010 10 16.0934 0 0
7:35 pm 19:35 Sunny 69 20.8 20 -6.9 15 15 NNE 3 6 29.85 1011 10 16.0934 0 0
7:55 pm 19:55 Sunny 67 19.5 19 -7.1 16 16 Calm 29.85 1011 10 16.0934 0 0
8:15 pm 20:15 Clear 64 17.7 19 -7 18 18 NE 3 6 29.91 1013 10 16.0934 0 0
8:35 pm 20:35 Clear 58 14.5 19 -7.3 22 22 NNE 10 17 29.94 1014 10 16.0934 0 0
8:55 pm 20:55 Clear 53 11.9 20 -6.7 27 27 NNE 7 11 30 1016 10 16.0934 0 0
9:15 pm 21:15 Clear 53 11.6 19 -7.1 27 27 NNE 8 13 30 1016 10 16.0934 0 0
9:35 pm 21:35 Clear 50 9.8 19 -7 30 30 NNE 8 13 30 1016 10 16.0934 0 0
9:55 pm 21:55 Clear 51 10.7 20 -6.6 29 29 NNE 7 11 30 1016 10 16.0934 0 0
10:15 pm 22:15 Clear 50 9.9 20 -6.8 30 30 NNE 7 11 30 1016 10 16.0934 0 0
10:35 pm 22:35 Clear 49 9.7 20 -6.5 32 32 N 5 7 30 1016 10 16.0934 0 0
10:55 pm 22:55 Clear 48 8.7 21 -6 35 35 N 5 7 30.03 1017 10 16.0934 0 0
11:15 pm 23:15 Clear 49 9.3 21 -6.2 33 33 N 5 7 30.03 1017 10 16.0934 0 0
11:35 pm 23:35 Clear 46 7.6 19 -7.1 35 35 N 5 7 30.03 1017 10 16.0934 0 0
11:55 pm 23:55 Clear 44 6.7 20 -6.6 38 38 N 3 6 30.03 1017 10 16.0934 0 0

Powered by AerisWeather